Location: Haulchin
(50.3172°N, 3.4360°E)
Time: 04:53:51
(UTC+00:00)

Cosmos 2333 Rocket - Pass Details

Date: 09 August 2024
Orbit: 839 x 863 km, 70.8° (Epoch: 16 September)

Event Time Altitude Azimuth Distance (km) Brightness Sun altitude
Exits shadow 03:15:27 - 268° (W) 2,899 4.5 -10.3°
Reaches altitude 10° 03:16:52 10° 277° (W) 2,501 4.3 -10.1°
Maximum altitude 03:21:05 20° 325° (NW) 1,874 4.1 -9.6°
Drops below altitude 10° 03:25:20 10° 12° (NNE) 2,514 5.5 -9.1°
Sets 03:28:29 0° 29° (NNE) 3,455 6.8 -8.7°
